NORTHEAST SUFFOLK  -  Dense Fog Advisory Dense Fog Advisory        NORTHERN NASSAU  -  Dense Fog Advisory Dense Fog Advisory        NORTHERN QUEENS  -  Dense Fog Advisory Dense Fog Advisory     Dense Fog Advisory Dense Fog Advisory        NORTHWEST SUFFOLK  -  Dense Fog Advisory Dense Fog Advisory        SOUTHEAST SUFFOLK  -  Dense Fog Advisory Dense Fog Advisory        SOUTHERN NASSAU  -  Dense Fog Advisory Dense Fog Advisory        SOUTHERN QUEENS  -  Dense Fog Advisory Dense Fog Advisory     Dense Fog Advisory Dense Fog Advisory        SOUTHWEST SUFFOLK  -  Dense Fog Advisory Dense Fog Advisory      

Active alerts

Northern Queens
  Details for Northern Queens Dense Fog Advisory  +1 additional alert
Southern Queens
  Details for Southern Queens Dense Fog Advisory  +1 additional alert
Northern Nassau
  Details for Northern Nassau Dense Fog Advisory
Southern Nassau
  Details for Southern Nassau Dense Fog Advisory
Northwest Suffolk
  Details for Northwest Suffolk Dense Fog Advisory
Southwest Suffolk
  Details for Southwest Suffolk Dense Fog Advisory
Northeast Suffolk
  Details for Northeast Suffolk Dense Fog Advisory
Southeast Suffolk
  Details for Southeast Suffolk Dense Fog Advisory


WXM80 ListenWXM80 Stop

You find our weather info also at:

UK Metoffice

WeatherCloud

Weather Underground

Northeastern Weather Network

AWEKAS

Citizen Weather Observer Program (CWOP)

HAMweather, WeatherForYou, PWS Weather


Weather Underground History page Text

Daily Summary for January 9, 2018 Units:  Metric    English   Both
« Previous Day
Next Day »
Daily Weekly Monthly Yearly Custom
  High: Low: Average:
Temperature: -17.8 °C -0.2 °C 1.9 °C
Dew Point: -17.8 °C -3.4 °C -2.2 °C
Humidity: Humidity % 55 % 74 %
Wind Speed: 0 km/h 1.4 km/h 7.7 km/h
Wind Gust: 0 km/h - -
Wind:- - WSW
Pressure: 0 hPa 1007.3 hPa -
Precipitation: 0 mm    
Historical Graphs
 
 
Tabular Data for January 9, 2018
Time Temperature Dew Point Pressure Wind Wind Speed Wind Gust Humidity Rainfall Rate (Hourly)
-17.8 °C -17.8 °C 0 hPa Calm     Humidity % 0 mm
00:00 0 °C -3.2 °C 1016.1 hPa South 10.9 km/h 18.5 km/h 79 % 0 mm
00:01 0 °C -3.2 °C 1016.1 hPa SW 9.5 km/h 18.5 km/h 79 % 0 mm
00:04 0 °C -3.2 °C 1008 hPa WSW 7.9 km/h 12.9 km/h 79 % 0 mm
00:06 0 °C -3.2 °C 1016.1 hPa West 3.1 km/h 11.1 km/h 79 % 0 mm
00:07 0 °C -3.2 °C 1016.1 hPa SW 3.5 km/h 11.3 km/h 79 % 0 mm
00:08 0 °C -3.2 °C 1016.1 hPa SW 8.4 km/h 12.9 km/h 79 % 0 mm
00:11 0 °C -3.4 °C 1016.1 hPa WSW 6.8 km/h 16.1 km/h 78 % 0 mm
00:12 0.1 °C -3.3 °C 1016.1 hPa WSW 9.5 km/h 16.7 km/h 78 % 0 mm
00:13 0.1 °C -3.3 °C 1007.7 hPa SW 5.1 km/h 9.3 km/h 78 % 0 mm
00:15 0.1 °C -3.3 °C 1016.1 hPa WSW 4.2 km/h 9.7 km/h 78 % 0 mm
00:16 0.1 °C -3.3 °C 1016.1 hPa SW 6.9 km/h 11.3 km/h 78 % 0 mm
00:17 0.1 °C -3.3 °C 1016.1 hPa SSW 4.8 km/h 13 km/h 78 % 0 mm
00:20 0.1 °C -3.3 °C 1016.1 hPa WSW 6.6 km/h 13 km/h 78 % 0 mm
00:21 0.1 °C -3.3 °C 1016.1 hPa SW 7.4 km/h 18.5 km/h 78 % 0 mm
00:22 0.1 °C -3.3 °C 1015.8 hPa WSW 5.6 km/h 12.9 km/h 78 % 0 mm
00:23 0.1 °C -3.3 °C 1016.1 hPa West 7.2 km/h 13 km/h 78 % 0 mm
00:24 0.1 °C -3.3 °C 1016.1 hPa WSW 6.8 km/h 13 km/h 78 % 0 mm
00:27 0.1 °C -3.3 °C 1016.1 hPa WSW 4.2 km/h 16.7 km/h 78 % 0 mm
00:28 0.1 °C -3.3 °C 1016.1 hPa WSW 4.7 km/h 7.4 km/h 78 % 0 mm
00:29 0.1 °C -3.3 °C 1016.1 hPa West 8.5 km/h 14.8 km/h 78 % 0 mm
00:30 0.1 °C -3.3 °C 1016.1 hPa WSW 6.3 km/h 14.8 km/h 78 % 0 mm
00:31 0.1 °C -3.3 °C 1015.8 hPa WSW 7.2 km/h 14.8 km/h 78 % 0 mm
00:32 0.1 °C -3.3 °C 1016.1 hPa SW 9.5 km/h 16.7 km/h 78 % 0 mm
00:36 0.1 °C -3.3 °C 1016.1 hPa SSW 6.1 km/h 13 km/h 78 % 0 mm
00:38 0.1 °C -3.3 °C 1007.7 hPa SW 7.6 km/h 11.1 km/h 78 % 0 mm
00:39 0.1 °C -3.3 °C 1015.8 hPa WSW 5.1 km/h 14.8 km/h 78 % 0 mm
00:40 0.1 °C -3.3 °C 1007.7 hPa West 5 km/h 7.4 km/h 78 % 0 mm
00:42 0.1 °C -3.3 °C 1015.8 hPa WSW 6 km/h 9.3 km/h 78 % 0 mm
00:43 0.1 °C -3.3 °C 1015.8 hPa WNW 1.8 km/h 9.3 km/h 78 % 0 mm
00:45 0.1 °C -3.3 °C 1015.8 hPa SSW 2.6 km/h 11.1 km/h 78 % 0 mm
00:46 0.1 °C -3.3 °C 1015.8 hPa SW 6.4 km/h 6.4 km/h 78 % 0 mm
00:51 0.1 °C -3.3 °C 1015.8 hPa West 5.3 km/h 16.7 km/h 78 % 0 mm
00:52 0.1 °C -3.3 °C 1015.8 hPa SSW 5.3 km/h 13 km/h 78 % 0 mm
00:53 0.1 °C -3.3 °C 1016.1 hPa West 4.2 km/h 13 km/h 78 % 0 mm
00:54 0.1 °C -3.3 °C 1015.8 hPa SW 7.2 km/h 16.7 km/h 78 % 0 mm
00:55 0.1 °C -3.3 °C 1015.8 hPa SW 7.1 km/h 13 km/h 78 % 0 mm
00:56 0.1 °C -3.3 °C 1015.8 hPa WSW 6.1 km/h 9.3 km/h 78 % 0 mm
00:58 0.1 °C -3.3 °C 1015.8 hPa WSW 7.7 km/h 7.7 km/h 78 % 0 mm
01:00 0.1 °C -3.3 °C 1015.8 hPa SW 4.5 km/h 13 km/h 78 % 0 mm
01:01 0.1 °C -3.3 °C 1015.8 hPa SSW 6.4 km/h 9.7 km/h 78 % 0 mm
01:05 0.1 °C -3.3 °C 1015.8 hPa SW 4 km/h 6.4 km/h 78 % 0 mm
01:06 0.1 °C -3.3 °C 1015.8 hPa SSW 4.7 km/h 7.4 km/h 78 % 0 mm
01:08 0.1 °C -3.3 °C 1015.8 hPa SSW 4.2 km/h 9.3 km/h 78 % 0 mm
01:09 0.1 °C -3.3 °C 1015.8 hPa SW 5.8 km/h 9.7 km/h 78 % 0 mm
01:10 0.1 °C -3.2 °C 1015.8 hPa WSW 5.6 km/h 11.1 km/h 79 % 0 mm
01:12 0.1 °C -3.2 °C 1015.8 hPa SW 9.7 km/h 12.9 km/h 79 % 0 mm
01:13 0.1 °C -3.2 °C 1007.3 hPa WSW 7.2 km/h 14.8 km/h 79 % 0 mm
01:15 0.1 °C -3.2 °C 1015.8 hPa WSW 5.5 km/h 11.1 km/h 79 % 0 mm
01:16 0.1 °C -3.2 °C 1015.8 hPa South 6.8 km/h 9.3 km/h 79 % 0 mm
01:18 0.1 °C -3.2 °C 1007.7 hPa WSW 8.5 km/h 13 km/h 79 % 0 mm
01:21 0.1 °C -3.2 °C 1016.1 hPa SW 8 km/h 14.5 km/h 79 % 0 mm
01:25 0.1 °C -3.2 °C 1015.8 hPa SW 3.7 km/h 7.4 km/h 79 % 0 mm
01:26 0.1 °C -3.2 °C 1007.7 hPa SW 1.6 km/h 12.9 km/h 79 % 0 mm
01:28 0.1 °C -3.2 °C 1016.1 hPa WSW 4.8 km/h 9.7 km/h 79 % 0 mm
01:29 0.1 °C -3.2 °C 1016.1 hPa SSW 6.4 km/h 9.7 km/h 79 % 0 mm
01:31 0.1 °C -3.2 °C 1016.1 hPa SSW 5.8 km/h 11.1 km/h 79 % 0 mm
01:32 0 °C -3.2 °C 1016.1 hPa SW 5.6 km/h 11.1 km/h 79 % 0 mm
01:34 0 °C -3.2 °C 1008 hPa WSW 4 km/h 13 km/h 79 % 0 mm
01:35 0 °C -3.2 °C 1016.1 hPa SW 7.7 km/h 14.5 km/h 79 % 0 mm
01:36 0 °C -3.2 °C 1016.1 hPa SSW 6.3 km/h 14.8 km/h 79 % 0 mm
01:40 0 °C -3.2 °C 1016.1 hPa WSW 8 km/h 14.8 km/h 79 % 0 mm
01:41 -0.1 °C -3.3 °C 1016.5 hPa WSW 7.1 km/h 14.8 km/h 79 % 0 mm
01:42 -0.1 °C -3.3 °C 1016.1 hPa SW 6.8 km/h 11.1 km/h 79 % 0 mm
01:44 -0.1 °C -3.3 °C 1016.1 hPa WSW 5.1 km/h 11.1 km/h 79 % 0 mm
01:45 -0.1 °C -3.3 °C 1008 hPa WSW 4.3 km/h 11.1 km/h 79 % 0 mm
01:49 -0.1 °C -3.3 °C 1016.1 hPa SW 7.9 km/h 13 km/h 79 % 0 mm
01:50 -0.1 °C -3.3 °C 1016.1 hPa SSW 7.4 km/h 9.3 km/h 79 % 0 mm
01:52 -0.2 °C -3.4 °C 1016.5 hPa WSW 7.4 km/h 14.8 km/h 79 % 0 mm
01:53 -0.2 °C -3.4 °C 1016.5 hPa SW 9.5 km/h 14.8 km/h 79 % 0 mm
01:54 -0.2 °C -3.4 °C 1016.5 hPa SW 9 km/h 14.8 km/h 79 % 0 mm
01:55 -0.2 °C -3.4 °C 1016.5 hPa WSW 11.3 km/h 14.8 km/h 79 % 0 mm
01:58 -0.2 °C -3.4 °C 1016.5 hPa SW 8.7 km/h 16.7 km/h 79 % 0 mm
01:59 -0.2 °C -3.2 °C 1016.5 hPa SW 7.6 km/h 13 km/h 80 % 0 mm
02:00 -0.2 °C -3.2 °C 1016.8 hPa SW 8.4 km/h 14.8 km/h 80 % 0 mm
02:01 -0.2 °C -3.2 °C 1016.8 hPa SW 9.2 km/h 14.8 km/h 80 % 0 mm
02:02 -0.2 °C -3.2 °C 1016.5 hPa SSW 7.9 km/h 14.8 km/h 80 % 0 mm
02:03 -0.2 °C -3.2 °C 1016.5 hPa South 8.5 km/h 13 km/h 80 % 0 mm
02:04 -0.2 °C -3.2 °C 1008.4 hPa South 5.1 km/h 13 km/h 80 % 0 mm
02:05 -0.2 °C -3.2 °C 1016.5 hPa WSW 6.6 km/h 7.4 km/h 80 % 0 mm
02:06 -0.2 °C -3.2 °C 1016.5 hPa SW 10.5 km/h 14.8 km/h 80 % 0 mm
02:09 -0.1 °C -3.2 °C 1016.5 hPa SW 9.2 km/h 16.7 km/h 80 % 0 mm
02:10 -0.1 °C -3 °C 1016.5 hPa WSW 10.5 km/h 16.7 km/h 81 % 0 mm
02:11 -0.1 °C -3 °C 1016.8 hPa SW 6.1 km/h 22.2 km/h 81 % 0 mm
02:12 -0.1 °C -3 °C 1016.5 hPa SW 6.8 km/h 7.4 km/h 81 % 0 mm
02:14 -0.1 °C -2.9 °C 1016.5 hPa SW 8.2 km/h 14.8 km/h 81 % 0 mm
02:16 -0.1 °C -2.9 °C 1016.5 hPa WSW 7.9 km/h 14.8 km/h 81 % 0 mm
02:20 -0.1 °C -2.9 °C 1016.5 hPa SW 6 km/h 12.9 km/h 81 % 0 mm
02:21 0 °C -2.9 °C 1016.5 hPa SSW 9.3 km/h 13 km/h 81 % 0 mm
02:22 -0.1 °C -2.9 °C 1016.5 hPa SSW 9.2 km/h 13 km/h 81 % 0 mm
02:23 0 °C -2.9 °C 1016.5 hPa WSW 6.6 km/h 14.8 km/h 81 % 0 mm
02:25 0 °C -2.9 °C 1016.5 hPa WSW 7.2 km/h 13 km/h 81 % 0 mm
02:28 -0.1 °C -3.1 °C 1016.8 hPa SW 5.6 km/h 12.9 km/h 80 % 0 mm
02:29 0 °C -3.1 °C 1008 hPa SW 6.8 km/h 14.5 km/h 80 % 0 mm
02:32 0 °C -3.1 °C 1016.5 hPa SW 7.1 km/h 9.7 km/h 80 % 0 mm
02:33 -0.1 °C -3.1 °C 1016.5 hPa WSW 2.7 km/h 11.1 km/h 80 % 0 mm
02:34 -0.1 °C -3.1 °C 1016.5 hPa SSW 4 km/h 5.6 km/h 80 % 0 mm
02:35 -0.1 °C -3.1 °C 1008.4 hPa WSW 3.5 km/h 8 km/h 80 % 0 mm
02:36 -0.1 °C -3.1 °C 1016.5 hPa WSW 6.6 km/h 11.3 km/h 80 % 0 mm
02:37 -0.1 °C -3.1 °C 1016.5 hPa SSW 8.5 km/h 11.1 km/h 80 % 0 mm
02:38 -0.1 °C -3.1 °C 1016.8 hPa SSW 7.1 km/h 11.3 km/h 80 % 0 mm
02:39 -0.1 °C -3.1 °C 1008.4 hPa SSW 8.5 km/h 11.1 km/h 80 % 0 mm
02:40 -0.1 °C -3.1 °C 1016.8 hPa SSW 6 km/h 11.1 km/h 80 % 0 mm
02:41 -0.1 °C -3.1 °C 1016.8 hPa SW 6.1 km/h 9.7 km/h 80 % 0 mm
02:42 -0.1 °C -3.1 °C 1016.8 hPa SW 5.6 km/h 11.3 km/h 80 % 0 mm
02:44 -0.1 °C -3 °C 1016.8 hPa SW 5 km/h 13 km/h 81 % 0 mm
02:46 -0.1 °C -3 °C 1016.8 hPa SW 4.8 km/h 12.9 km/h 81 % 0 mm
02:50 -0.2 °C -3.1 °C 1016.8 hPa SSW 7.6 km/h 11.3 km/h 81 % 0 mm
02:51 -0.2 °C -3.1 °C 1016.5 hPa WSW 8.4 km/h 12.9 km/h 81 % 0 mm
02:52 -0.2 °C -3.1 °C 1016.5 hPa WSW 7.2 km/h 13 km/h 81 % 0 mm
02:53 -0.2 °C -3.1 °C 1016.5 hPa SSW 8.7 km/h 12.9 km/h 81 % 0 mm
02:54 -0.2 °C -3.1 °C 1016.5 hPa SW 8.5 km/h 13 km/h 81 % 0 mm
02:55 -0.2 °C -3.1 °C 1016.5 hPa SW 7.4 km/h 11.1 km/h 81 % 0 mm
02:56 -0.2 °C -3.1 °C 1016.5 hPa SSW 6.9 km/h 11.1 km/h 81 % 0 mm
02:57 -0.2 °C -3.1 °C 1016.5 hPa SW 7.7 km/h 13 km/h 81 % 0 mm
02:58 -0.2 °C -3.1 °C 1016.5 hPa SW 10.1 km/h 14.5 km/h 81 % 0 mm
02:59 -0.2 °C -3.1 °C 1016.5 hPa SW 10.9 km/h 11.1 km/h 81 % 0 mm
03:01 -0.2 °C -3.1 °C 1016.5 hPa SSW 10.9 km/h 14.8 km/h 81 % 0 mm
03:02 -0.2 °C -3.1 °C 1016.1 hPa WSW 9.8 km/h 13 km/h 81 % 0 mm
03:03 -0.2 °C -3.1 °C 1016.1 hPa SSW 9.2 km/h 16.7 km/h 81 % 0 mm
03:04 -0.2 °C -3.1 °C 1016.1 hPa SSW 8.2 km/h 12.9 km/h 81 % 0 mm
03:05 -0.2 °C -3.1 °C 1016.1 hPa SSW 9 km/h 13 km/h 81 % 0 mm
03:08 -0.2 °C -3.1 °C 1016.1 hPa SSW 8.4 km/h 11.3 km/h 81 % 0 mm
03:09 -0.2 °C -3.1 °C 1016.1 hPa SW 5.8 km/h 11.3 km/h 81 % 0 mm
03:12 -0.2 °C -3.1 °C 1016.1 hPa SSW 6.3 km/h 11.1 km/h 81 % 0 mm
03:13 -0.2 °C -3.1 °C 1016.1 hPa SW 7.1 km/h 11.3 km/h 81 % 0 mm
03:14 -0.2 °C -3.1 °C 1015.8 hPa SW 9.8 km/h 11.1 km/h 81 % 0 mm
03:15 -0.2 °C -3.1 °C 1015.8 hPa SSW 9.7 km/h 14.8 km/h 81 % 0 mm
03:16 -0.2 °C -3.1 °C 1015.8 hPa SSW 7.1 km/h 9.7 km/h 81 % 0 mm
03:17 -0.2 °C -3.1 °C 1015.8 hPa SW 5.3 km/h 11.1 km/h 81 % 0 mm
03:18 -0.2 °C -3.1 °C 1007.7 hPa SSW 5.6 km/h 11.1 km/h 81 % 0 mm
03:20 -0.2 °C -3.1 °C 1015.8 hPa SW 9.7 km/h 14.8 km/h 81 % 0 mm
03:21 -0.2 °C -3.1 °C 1015.8 hPa SSW 9.7 km/h 14.5 km/h 81 % 0 mm
03:22 -0.2 °C -3.1 °C 1016.1 hPa WSW 7.1 km/h 13 km/h 81 % 0 mm
03:23 -0.2 °C -3.1 °C 1015.8 hPa SSW 6.4 km/h 11.1 km/h 81 % 0 mm
03:24 -0.2 °C -3.1 °C 1015.8 hPa SW 8.4 km/h 11.1 km/h 81 % 0 mm
03:25 -0.2 °C -3.1 °C 1007.7 hPa WSW 10 km/h 20.4 km/h 81 % 0 mm
03:26 -0.2 °C -3.1 °C 1015.8 hPa SSW 9.7 km/h 20.9 km/h 81 % 0 mm
03:27 -0.2 °C -3.1 °C 1015.8 hPa SSW 9.7 km/h 20.4 km/h 81 % 0 mm
03:30 -0.2 °C -3.1 °C 1016.1 hPa SSW 7.9 km/h 11.3 km/h 81 % 0 mm
03:33 -0.2 °C -3.1 °C 1016.1 hPa SSW 8.4 km/h 11.1 km/h 81 % 0 mm
03:37 -0.2 °C -3.1 °C 1016.1 hPa SSW 4.8 km/h 6.4 km/h 81 % 0 mm
03:38 -0.2 °C -3.1 °C 1016.1 hPa SSW 5.5 km/h 11.3 km/h 81 % 0 mm
03:39 -0.2 °C -3.1 °C 1016.1 hPa SSW 7.7 km/h 14.8 km/h 81 % 0 mm
03:40 -0.2 °C -3.1 °C 1016.1 hPa SSW 5.5 km/h 14.8 km/h 81 % 0 mm
03:41 -0.2 °C -3.1 °C 1016.1 hPa SSW 4.8 km/h 14.5 km/h 81 % 0 mm
03:42 -0.2 °C -3.1 °C 1016.1 hPa WSW 7.4 km/h 11.3 km/h 81 % 0 mm
03:43 -0.2 °C -3.1 °C 1008 hPa SW 7.4 km/h 11.1 km/h 81 % 0 mm
03:44 -0.2 °C -3.1 °C 1016.1 hPa SSW 7.7 km/h 11.1 km/h 81 % 0 mm
03:45 -0.2 °C -3.1 °C 1016.1 hPa SW 9.5 km/h 13 km/h 81 % 0 mm
03:46 -0.2 °C -3.1 °C 1016.1 hPa SW 5.3 km/h 16.7 km/h 81 % 0 mm
03:48 -0.2 °C -3.1 °C 1016.1 hPa SW 5.3 km/h 11.3 km/h 81 % 0 mm
03:49 -0.2 °C -3.1 °C 1016.1 hPa SSW 6 km/h 11.1 km/h 81 % 0 mm
03:50 -0.2 °C -3.1 °C 1016.1 hPa WSW 8.7 km/h 12.9 km/h 81 % 0 mm
03:51 -0.2 °C -3.1 °C 1016.1 hPa SSW 7.6 km/h 13 km/h 81 % 0 mm
03:52 -0.2 °C -3.1 °C 1016.1 hPa SSW 6.4 km/h 11.1 km/h 81 % 0 mm
03:53 -0.2 °C -3.1 °C 1016.1 hPa SSW 6.1 km/h 13 km/h 81 % 0 mm
03:54 -0.2 °C -3.1 °C 1016.1 hPa SW 6.6 km/h 13 km/h 81 % 0 mm
03:55 -0.2 °C -3.1 °C 1016.1 hPa SW 7.9 km/h 13 km/h 81 % 0 mm
03:56 -0.2 °C -3.1 °C 1016.1 hPa South 5 km/h 9.3 km/h 81 % 0 mm
03:57 -0.2 °C -3.1 °C 1016.5 hPa WSW 6.1 km/h 11.3 km/h 81 % 0 mm
03:58 -0.2 °C -3.1 °C 1016.1 hPa SSW 8.7 km/h 18.5 km/h 81 % 0 mm
04:00 -0.2 °C -3.1 °C 1016.5 hPa SSW 5.3 km/h 8 km/h 81 % 0 mm
04:02 -0.2 °C -3.1 °C 1016.5 hPa SSW 5.3 km/h 14.5 km/h 81 % 0 mm
04:03 -0.2 °C -3.1 °C 1016.5 hPa SSW 7.9 km/h 11.3 km/h 81 % 0 mm
04:04 -0.1 °C -3 °C 1016.5 hPa SW 8.5 km/h 12.9 km/h 81 % 0 mm
04:05 -0.2 °C -3.1 °C 1016.5 hPa SW 6 km/h 9.3 km/h 81 % 0 mm
04:06 -0.1 °C -2.8 °C 1016.5 hPa SSW 5.8 km/h 7.4 km/h 82 % 0 mm
04:07 -0.1 °C -2.8 °C 1016.5 hPa SSW 6.4 km/h 9.7 km/h 82 % 0 mm
04:08 -0.1 °C -2.8 °C 1016.5 hPa WSW 8.9 km/h 14.8 km/h 82 % 0 mm
04:09 -0.1 °C -2.8 °C 1008 hPa SSW 6.9 km/h 13 km/h 82 % 0 mm
04:10 -0.1 °C -2.8 °C 1016.5 hPa SW 6.8 km/h 13 km/h 82 % 0 mm
04:13 -0.1 °C -2.8 °C 1008.4 hPa SW 10 km/h 14.5 km/h 82 % 0 mm
04:14 0 °C -2.7 °C 1008.4 hPa SSW 7.7 km/h 14.8 km/h 82 % 0 mm
04:15 0 °C -2.7 °C 1016.5 hPa SW 8 km/h 14.8 km/h 82 % 0 mm
04:16 0 °C -2.7 °C 1016.5 hPa SSW 6.3 km/h 11.3 km/h 82 % 0 mm
04:20 0.1 °C -2.6 °C 1016.5 hPa SSW 9 km/h 18.5 km/h 82 % 0 mm
04:21 0.1 °C -2.6 °C 1016.5 hPa SW 8 km/h 19.3 km/h 82 % 0 mm
04:22 0.1 °C -2.6 °C 1016.5 hPa SSW 7.2 km/h 11.3 km/h 82 % 0 mm
04:23 0.2 °C -2.6 °C 1016.5 hPa WSW 8.2 km/h 13 km/h 82 % 0 mm
04:26 0.2 °C -2.6 °C 1016.8 hPa SW 5.3 km/h 13 km/h 82 % 0 mm
04:30 0.2 °C -2.5 °C 1016.8 hPa SW 10.9 km/h 18.5 km/h 82 % 0 mm
04:31 0.2 °C -2.5 °C 1016.8 hPa SSW 5.3 km/h 18.5 km/h 82 % 0 mm
04:32 0.2 °C -2.5 °C 1016.8 hPa SW 6.8 km/h 18.5 km/h 82 % 0 mm
04:34 0.2 °C -2.5 °C 1016.8 hPa SW 5.3 km/h 11.1 km/h 82 % 0 mm
04:35 0.3 °C -2.4 °C 1016.8 hPa South 5.8 km/h 9.7 km/h 82 % 0 mm
04:38 0.3 °C -2.4 °C 1016.8 hPa SSW 4.2 km/h 13 km/h 82 % 0 mm
04:40 0.3 °C -2.4 °C 1016.8 hPa West 7.4 km/h 11.3 km/h 82 % 0 mm
04:41 0.3 °C -2.4 °C 1016.8 hPa SSW 6.6 km/h 13 km/h 82 % 0 mm
04:42 0.3 °C -2.4 °C 1016.8 hPa SW 7.1 km/h 13 km/h 82 % 0 mm
04:43 0.3 °C -2.4 °C 1016.8 hPa West 5.6 km/h 13 km/h 82 % 0 mm
04:44 0.4 °C -2.3 °C 1016.8 hPa SW 6.6 km/h 12.9 km/h 82 % 0 mm
04:45 0.4 °C -2.3 °C 1016.8 hPa SSW 7.4 km/h 11.1 km/h 82 % 0 mm
04:48 0.4 °C -2.3 °C 1016.8 hPa WSW 4.5 km/h 14.8 km/h 82 % 0 mm
04:53 0.5 °C -2.2 °C 1016.8 hPa WSW 3.1 km/h 7.4 km/h 82 % 0 mm
04:54 0.6 °C -2 °C 1008.7 hPa SW 12.6 km/h 20.9 km/h 83 % 0 mm
04:58 0.6 °C -1.9 °C 1016.8 hPa SW 9.2 km/h 18.5 km/h 83 % 0 mm
04:59 0.7 °C -2.1 °C 1016.8 hPa WSW 4.3 km/h 11.1 km/h 82 % 0 mm
05:02 0.7 °C -2 °C 1017.2 hPa SW 7.2 km/h 13 km/h 82 % 0 mm
05:03 0.7 °C -2 °C 1016.8 hPa SW 6.1 km/h 13 km/h 82 % 0 mm
05:04 0.8 °C -1.9 °C 1017.2 hPa West 6.9 km/h 11.3 km/h 82 % 0 mm
05:08 0.8 °C -1.9 °C 1016.8 hPa SW 8 km/h 16.7 km/h 82 % 0 mm
05:09 0.9 °C -1.8 °C 1017.2 hPa SSE 10 km/h 14.8 km/h 82 % 0 mm
05:10 0.9 °C -1.8 °C 1017.2 hPa SW 9.3 km/h 14.8 km/h 82 % 0 mm
05:11 0.9 °C -1.8 °C 1017.2 hPa SW 8 km/h 22.5 km/h 82 % 0 mm
05:12 0.9 °C -1.8 °C 1017.2 hPa WSW 7.7 km/h 22.2 km/h 82 % 0 mm
05:14 1 °C -1.7 °C 1017.2 hPa WSW 10.8 km/h 24.1 km/h 82 % 0 mm
05:15 1 °C -1.7 °C 1017.2 hPa SW 14.6 km/h 24.1 km/h 82 % 0 mm
05:16 1.1 °C -1.7 °C 1017.2 hPa SW 11.3 km/h 16.1 km/h 82 % 0 mm
05:17 1.1 °C -1.7 °C 1017.2 hPa WSW 10.8 km/h 11.1 km/h 82 % 0 mm
05:18 1.1 °C -1.7 °C 1017.2 hPa SW 8.2 km/h 16.7 km/h 82 % 0 mm
05:19 1.1 °C -1.7 °C 1017.2 hPa SSW 7.7 km/h 14.8 km/h 82 % 0 mm
05:20 1.1 °C -1.8 °C 1017.2 hPa WSW 10.1 km/h 18.5 km/h 81 % 0 mm
05:22 1.1 °C -1.8 °C 1017.5 hPa WSW 8.9 km/h 18.5 km/h 81 % 0 mm
05:23 1.1 °C -1.8 °C 1009 hPa SW 6.4 km/h 16.7 km/h 81 % 0 mm
05:24 1.2 °C -1.7 °C 1017.5 hPa WSW 4.7 km/h 13 km/h 81 % 0 mm
05:25 1.2 °C -1.7 °C 1009 hPa SW 4.8 km/h 13 km/h 81 % 0 mm
05:26 1.2 °C -1.7 °C 1017.2 hPa SW 7.4 km/h 11.3 km/h 81 % 0 mm
05:27 1.2 °C -1.7 °C 1017.2 hPa SSW 7.9 km/h 11.3 km/h 81 % 0 mm
05:28 1.2 °C -1.7 °C 1017.5 hPa WSW 7.1 km/h 11.1 km/h 81 % 0 mm
05:29 1.2 °C -1.7 °C 1017.5 hPa SW 7.1 km/h 16.1 km/h 81 % 0 mm
05:30 1.2 °C -1.7 °C 1017.5 hPa WSW 7.9 km/h 18.5 km/h 81 % 0 mm
05:32 1.2 °C -1.7 °C 1017.5 hPa WSW 10.1 km/h 13 km/h 81 % 0 mm
05:34 1.2 °C -1.7 °C 1017.5 hPa SW 8.4 km/h 16.1 km/h 81 % 0 mm
05:35 1.2 °C -1.7 °C 1017.2 hPa WSW 9 km/h 18.5 km/h 81 % 0 mm
05:36 1.2 °C -1.7 °C 1017.5 hPa SSW 7.1 km/h 16.7 km/h 81 % 0 mm
05:37 1.2 °C -1.7 °C 1017.5 hPa SSW 9 km/h 16.7 km/h 81 % 0 mm
05:38 1.2 °C -1.7 °C 1017.2 hPa WSW 8.4 km/h 13 km/h 81 % 0 mm
05:39 1.2 °C -1.7 °C 1017.5 hPa SW 8 km/h 18.5 km/h 81 % 0 mm
05:41 1.2 °C -1.8 °C 1017.2 hPa SW 5.5 km/h 13 km/h 80 % 0 mm
05:42 1.2 °C -1.8 °C 1017.2 hPa SSW 5.1 km/h 13 km/h 80 % 0 mm
05:43 1.2 °C -1.8 °C 1017.5 hPa SW 9.7 km/h 12.9 km/h 80 % 0 mm
05:44 1.2 °C -1.8 °C 1017.5 hPa WSW 9.5 km/h 16.7 km/h 80 % 0 mm
05:47 1.2 °C -1.8 °C 1017.2 hPa WSW 5.8 km/h 16.7 km/h 80 % 0 mm
05:49 1.2 °C -1.8 °C 1017.5 hPa SW 9.5 km/h 16.7 km/h 80 % 0 mm
05:50 1.2 °C -1.8 °C 1009 hPa WSW 5.3 km/h 16.7 km/h 80 % 0 mm
05:51 1.2 °C -1.8 °C 1017.5 hPa SW 8 km/h 16.1 km/h 80 % 0 mm
05:52 1.2 °C -1.8 °C 1017.5 hPa SSW 8.4 km/h 18.5 km/h 80 % 0 mm
05:53 1.2 °C -1.8 °C 1017.5 hPa SW 6.8 km/h 18.5 km/h 80 % 0 mm
05:54 1.2 °C -1.8 °C 1017.5 hPa SW 5.8 km/h 18.5 km/h 80 % 0 mm
05:55 1.2 °C -1.9 °C 1017.5 hPa SW 5.3 km/h 11.1 km/h 80 % 0 mm
05:57 1.2 °C -1.9 °C 1017.5 hPa South 7.6 km/h 11.3 km/h 80 % 0 mm
05:58 1.2 °C -1.9 °C 1017.2 hPa WSW 7.2 km/h 11.1 km/h 80 % 0 mm
05:59 1.2 °C -1.9 °C 1009 hPa SSW 7.2 km/h 11.1 km/h 80 % 0 mm
06:00 1.2 °C -1.9 °C 1017.5 hPa SW 6.1 km/h 13 km/h 80 % 0 mm
06:02 1.1 °C -1.9 °C 1017.5 hPa SSW 5 km/h 13 km/h 80 % 0 mm
06:03 1.1 °C -1.9 °C 1017.5 hPa SSW 5.3 km/h 9.7 km/h 80 % 0 mm
06:04 1.1 °C -1.9 °C 1017.5 hPa SSW 7.7 km/h 16.7 km/h 80 % 0 mm
06:06 1.1 °C -2 °C 1017.5 hPa SW 8.4 km/h 13 km/h 80 % 0 mm
06:07 1.1 °C -2 °C 1009 hPa SSW 7.9 km/h 8 km/h 80 % 0 mm
06:09 1.1 °C -2 °C 1017.5 hPa WSW 5.1 km/h 14.8 km/h 80 % 0 mm
06:11 1.1 °C -2 °C 1017.5 hPa SSW 3.2 km/h 14.5 km/h 80 % 0 mm
06:12 1.1 °C -2 °C 1017.5 hPa SW 6.6 km/h 11.3 km/h 80 % 0 mm
06:13 1 °C -2.1 °C 1017.8 hPa SW 7.7 km/h 12.9 km/h 80 % 0 mm
06:15 1 °C -2.1 °C 1017.8 hPa SSW 7.1 km/h 16.7 km/h 80 % 0 mm
06:18 0.9 °C -2.1 °C 1017.8 hPa SSW 6.3 km/h 16.7 km/h 80 % 0 mm
06:19 0.9 °C -2.1 °C 1017.8 hPa WSW 5.8 km/h 13 km/h 80 % 0 mm
06:20 0.9 °C -2.1 °C 1017.8 hPa SW 6.3 km/h 13 km/h 80 % 0 mm
06:21 0.9 °C -2.1 °C 1017.8 hPa SW 4.8 km/h 16.1 km/h 80 % 0 mm
06:22 0.9 °C -2.1 °C 1017.8 hPa SSW 8 km/h 16.7 km/h 80 % 0 mm
06:24 0.9 °C -2.1 °C 1017.8 hPa SW 6.1 km/h 12.9 km/h 80 % 0 mm
06:25 0.9 °C -2.2 °C 1017.8 hPa SSW 6.8 km/h 13 km/h 80 % 0 mm
06:27 0.9 °C -2.2 °C 1009.7 hPa WSW 8.5 km/h 14.5 km/h 80 % 0 mm
06:28 0.9 °C -2 °C 1018.2 hPa SSW 10.9 km/h 16.1 km/h 81 % 0 mm
06:30 0.9 °C -2 °C 1017.8 hPa SSW 6.4 km/h 13 km/h 81 % 0 mm
06:31 0.9 °C -2 °C 1018.2 hPa SW 5 km/h 11.1 km/h 81 % 0 mm
06:32 0.9 °C -2 °C 1018.2 hPa WSW 8 km/h 13 km/h 81 % 0 mm
06:34 0.9 °C -2 °C 1018.2 hPa WSW 7.6 km/h 18.5 km/h 81 % 0 mm
06:35 0.9 °C -2 °C 1018.2 hPa WSW 4.2 km/h 18.5 km/h 81 % 0 mm
06:36 0.9 °C -2 °C 1018.2 hPa West 6.4 km/h 7.4 km/h 81 % 0 mm
06:38 0.9 °C -2 °C 1018.2 hPa South 10.1 km/h 18.5 km/h 81 % 0 mm
06:39 0.9 °C -2 °C 1018.2 hPa SW 5.6 km/h 11.1 km/h 81 % 0 mm
06:41 0.9 °C -2 °C 1018.2 hPa WSW 7.7 km/h 12.9 km/h 81 % 0 mm
06:45 0.9 °C -2 °C 1010 hPa SW 9.2 km/h 18.5 km/h 81 % 0 mm
06:46 0.9 °C -2 °C 1018.5 hPa SW 3.2 km/h 13 km/h 81 % 0 mm
06:47 0.9 °C -2 °C 1010 hPa SW 5.1 km/h 7.4 km/h 81 % 0 mm
06:48 0.9 °C -2 °C 1018.5 hPa WSW 7.4 km/h 11.3 km/h 81 % 0 mm
06:50 0.9 °C -2 °C 1018.5 hPa WSW 6.8 km/h 11.1 km/h 81 % 0 mm
06:51 0.9 °C -2 °C 1018.5 hPa SW 5.1 km/h 9.3 km/h 81 % 0 mm
06:52 0.9 °C -2 °C 1018.5 hPa WSW 7.2 km/h 14.5 km/h 81 % 0 mm
06:53 0.9 °C -2 °C 1018.5 hPa SW 7.7 km/h 13 km/h 81 % 0 mm
06:54 0.9 °C -2 °C 1018.5 hPa SW 8.7 km/h 16.7 km/h 81 % 0 mm
06:56 0.9 °C -2 °C 1018.5 hPa SW 7.1 km/h 16.7 km/h 81 % 0 mm
06:57 0.8 °C -2.1 °C 1018.5 hPa SSW 7.1 km/h 13 km/h 81 % 0 mm
06:58 0.9 °C -2 °C 1018.5 hPa SW 6.6 km/h 9.3 km/h 81 % 0 mm
06:59 0.9 °C -2 °C 1018.5 hPa WSW 6 km/h 14.5 km/h 81 % 0 mm
07:00 0.8 °C -2.1 °C 1018.5 hPa SSW 8.2 km/h 14.8 km/h 81 % 0 mm
07:02 0.8 °C -2.1 °C 1018.5 hPa SSW 7.2 km/h 11.1 km/h 81 % 0 mm
07:03 0.8 °C -2.1 °C 1018.5 hPa SW 6.8 km/h 11.1 km/h 81 % 0 mm
07:04 0.8 °C -2.1 °C 1010.4 hPa SW 4.3 km/h 11.1 km/h 81 % 0 mm
07:05 0.8 °C -2.1 °C 1018.5 hPa SW 8.2 km/h 16.7 km/h 81 % 0 mm
07:06 0.8 °C -2.1 °C 1018.5 hPa WSW 10 km/h 16.7 km/h 81 % 0 mm
07:08 0.8 °C -2.1 °C 1018.5 hPa WSW 8.4 km/h 18.5 km/h 81 % 0 mm
07:09 0.8 °C -2.1 °C 1018.8 hPa SW 6.4 km/h 11.3 km/h 81 % 0 mm
07:10 0.8 °C -2.1 °C 1018.5 hPa WSW 5.1 km/h 11.1 km/h 81 % 0 mm
07:13 0.8 °C -2.1 °C 1018.5 hPa WSW 6.3 km/h 14.5 km/h 81 % 0 mm
07:15 0.8 °C -2.1 °C 1018.5 hPa SSW 8.5 km/h 16.7 km/h 81 % 0 mm
07:17 0.8 °C -2.1 °C 1018.5 hPa SSE 6.8 km/h 9.3 km/h 81 % 0 mm
07:18 0.8 °C -2.1 °C 1018.5 hPa SW 7.9 km/h 13 km/h 81 % 0 mm
07:19 0.8 °C -2.1 °C 1018.8 hPa SW 8.2 km/h 11.3 km/h 81 % 0 mm
07:24 0.7 °C -2.2 °C 1018.5 hPa South 6.8 km/h 11.1 km/h 81 % 0 mm
07:25 0.7 °C -2.2 °C 1018.8 hPa SW 7.2 km/h 11.1 km/h 81 % 0 mm
07:26 0.7 °C -2.2 °C 1018.5 hPa SSW 10.5 km/h 14.8 km/h 81 % 0 mm
07:27 0.7 °C -2.2 °C 1018.5 hPa SSW 11.1 km/h 14.8 km/h 81 % 0 mm
07:28 0.7 °C -2.2 °C 1018.5 hPa WSW 7.1 km/h 9.3 km/h 81 % 0 mm
07:31 0.7 °C -2.2 °C 1018.5 hPa SW 9.2 km/h 16.7 km/h 81 % 0 mm
07:33 0.7 °C -2.2 °C 1018.5 hPa WSW 11.7 km/h 17.7 km/h 81 % 0 mm
07:34 0.7 °C -2 °C 1018.8 hPa SW 9.5 km/h 22.2 km/h 82 % 0 mm
07:37 0.7 °C -2 °C 1018.8 hPa SSW 8 km/h 13 km/h 82 % 0 mm
07:38 0.8 °C -1.9 °C 1018.8 hPa West 6.1 km/h 13 km/h 82 % 0 mm
07:39 0.8 °C -1.9 °C 1018.8 hPa WSW 4.7 km/h 9.3 km/h 82 % 0 mm
07:40 0.8 °C -1.9 °C 1018.8 hPa SSW 9.3 km/h 16.7 km/h 82 % 0 mm
07:41 0.8 °C -1.9 °C 1018.8 hPa WSW 7.6 km/h 13 km/h 82 % 0 mm
07:42 0.8 °C -2.1 °C 1018.8 hPa SW 7.2 km/h 13 km/h 81 % 0 mm
07:43 0.8 °C -2.1 °C 1018.8 hPa SW 6.4 km/h 13 km/h 81 % 0 mm
07:44 0.8 °C -2.1 °C 1018.8 hPa SW 6 km/h 16.1 km/h 81 % 0 mm
07:45 0.8 °C -2.1 °C 1018.8 hPa SW 7.1 km/h 16.7 km/h 81 % 0 mm
07:46 0.8 °C -2.1 °C 1019.2 hPa SW 8.4 km/h 13 km/h 81 % 0 mm
07:47 0.8 °C -2.1 °C 1019.2 hPa SSW 5.3 km/h 13 km/h 81 % 0 mm
07:48 0.8 °C -2.1 °C 1018.8 hPa SW 6 km/h 14.8 km/h 81 % 0 mm
07:51 0.8 °C -2.1 °C 1019.2 hPa South 6.9 km/h 11.3 km/h 81 % 0 mm
07:52 0.9 °C -2 °C 1019.2 hPa West 7.1 km/h 11.3 km/h 81 % 0 mm
07:55 0.9 °C -2 °C 1019.2 hPa WSW 6.6 km/h 14.8 km/h 81 % 0 mm
07:56 0.9 °C -2 °C 1019.2 hPa SW 5.5 km/h 7.4 km/h 81 % 0 mm
07:58 0.9 °C -1.9 °C 1019.2 hPa WSW 3.4 km/h 12.9 km/h 81 % 0 mm
07:59 0.9 °C -1.9 °C 1019.2 hPa WSW 5.8 km/h 13 km/h 81 % 0 mm
08:00 0.9 °C -1.9 °C 1019.2 hPa WSW 9.7 km/h 16.1 km/h 81 % 0 mm
08:01 1 °C -1.9 °C 1019.2 hPa SW 7.1 km/h 16.7 km/h 81 % 0 mm
08:03 1 °C -1.9 °C 1019.2 hPa SW 5.3 km/h 7.4 km/h 81 % 0 mm
08:04 1 °C -1.9 °C 1019.2 hPa SSW 6.1 km/h 14.5 km/h 81 % 0 mm
08:12 1.1 °C -1.8 °C 1019.2 hPa SW 6.8 km/h 11.3 km/h 81 % 0 mm
08:13 1.1 °C -1.8 °C 1019.2 hPa WSW 8.7 km/h 11.1 km/h 81 % 0 mm
08:14 1.1 °C -1.8 °C 1019.2 hPa SSW 7.6 km/h 13 km/h 81 % 0 mm
08:15 1.1 °C -1.8 °C 1019.2 hPa SW 7.9 km/h 14.8 km/h 81 % 0 mm
08:16 1.1 °C -1.8 °C 1019.2 hPa SW 7.4 km/h 13 km/h 81 % 0 mm
08:17 1.1 °C -1.8 °C 1019.2 hPa SSW 7.7 km/h 13 km/h 81 % 0 mm
08:18 1.2 °C -1.7 °C 1019.5 hPa SW 5.8 km/h 9.3 km/h 81 % 0 mm
08:19 1.1 °C -1.8 °C 1019.2 hPa South 7.4 km/h 12.9 km/h 81 % 0 mm
08:20 1.2 °C -1.7 °C 1019.5 hPa WSW 10.1 km/h 13 km/h 81 % 0 mm
08:21 1.2 °C -1.7 °C 1011.1 hPa SW 9.7 km/h 16.1 km/h 81 % 0 mm
08:22 1.2 °C -1.7 °C 1019.5 hPa WSW 8.7 km/h 16.7 km/h 81 % 0 mm
08:25 1.2 °C -1.8 °C 1019.5 hPa SW 7.9 km/h 11.1 km/h 80 % 0 mm
08:26 1.2 °C -1.8 °C 1019.5 hPa West 5.6 km/h 9.3 km/h 80 % 0 mm
08:27 1.3 °C -1.8 °C 1019.5 hPa South 9.8 km/h 14.5 km/h 80 % 0 mm
08:28 1.3 °C -1.8 °C 1019.5 hPa WSW 10.9 km/h 16.1 km/h 80 % 0 mm
08:29 1.3 °C -1.8 °C 1019.5 hPa WSW 11.7 km/h 20.4 km/h 80 % 0 mm
08:30 1.3 °C -1.8 °C 1019.5 hPa WSW 9.7 km/h 14.8 km/h 80 % 0 mm
08:31 1.3 °C -1.8 °C 1019.5 hPa SW 9.3 km/h 14.8 km/h 80 % 0 mm
08:34 1.4 °C -1.7 °C 1019.5 hPa SW 9 km/h 18.5 km/h 80 % 0 mm
08:35 1.4 °C -1.7 °C 1019.9 hPa SW 9.7 km/h 17.7 km/h 80 % 0 mm
08:37 1.4 °C -1.6 °C 1019.9 hPa WSW 14.6 km/h 24.1 km/h 80 % 0 mm
08:38 1.5 °C -1.6 °C 1011.4 hPa WSW 11.6 km/h 18.5 km/h 80 % 0 mm
08:39 1.5 °C -1.7 °C 1019.9 hPa WSW 8.4 km/h 18.5 km/h 79 % 0 mm
08:40 1.5 °C -1.7 °C 1019.9 hPa WSW 6.9 km/h 18.5 km/h 79 % 0 mm
08:41 1.6 °C -1.6 °C 1019.9 hPa SW 3.2 km/h 19.3 km/h 80 % 0 mm
08:43 1.6 °C -1.7 °C 1011.4 hPa SW 4.7 km/h 12.9 km/h 79 % 0 mm
08:44 1.6 °C -1.7 °C 1019.9 hPa SW 7.2 km/h 14.8 km/h 79 % 0 mm
08:45 1.7 °C -1.6 °C 1019.9 hPa SW 7.1 km/h 14.8 km/h 79 % 0 mm
08:46 1.7 °C -1.6 °C 1019.9 hPa West 7.4 km/h 11.1 km/h 79 % 0 mm
08:47 1.7 °C -1.6 °C 1019.9 hPa WSW 6.6 km/h 14.8 km/h 79 % 0 mm
08:50 1.8 °C -1.5 °C 1019.9 hPa WSW 12.1 km/h 20.4 km/h 79 % 0 mm
08:51 1.8 °C -1.5 °C 1019.9 hPa WSW 10.6 km/h 20.4 km/h 79 % 0 mm
08:52 1.8 °C -1.5 °C 1019.9 hPa WSW 9 km/h 16.7 km/h 79 % 0 mm
08:53 1.8 °C -1.4 °C 1019.9 hPa SW 5.5 km/h 14.8 km/h 79 % 0 mm
08:56 1.9 °C -1.5 °C 1020.2 hPa WSW 10 km/h 14.8 km/h 78 % 0 mm
08:57 1.9 °C -1.5 °C 1020.2 hPa WSW 10.5 km/h 14.8 km/h 78 % 0 mm
08:58 2 °C -1.4 °C 1020.2 hPa SW 4 km/h 16.7 km/h 78 % 0 mm
08:59 2 °C -1.4 °C 1020.2 hPa SW 8.5 km/h 14.8 km/h 78 % 0 mm
09:00 2.1 °C -1.4 °C 1020.2 hPa SW 7.2 km/h 14.8 km/h 78 % 0 mm
09:02 2.1 °C -1.3 °C 1020.2 hPa West 8.2 km/h 13 km/h 78 % 0 mm
09:03 2.2 °C -1.4 °C 1020.2 hPa SSW 5.1 km/h 13 km/h 77 % 0 mm
09:04 2.2 °C -1.4 °C 1020.2 hPa WSW 7.9 km/h 17.7 km/h 77 % 0 mm
09:06 2.2 °C -1.4 °C 1020.2 hPa WSW 9.5 km/h 20.9 km/h 77 % 0 mm
09:07 2.3 °C -1.3 °C 1020.5 hPa SSW 9.5 km/h 14.8 km/h 77 % 0 mm
09:08 2.3 °C -1.3 °C 1020.2 hPa SW 8.7 km/h 14.5 km/h 77 % 0 mm
09:09 2.3 °C -1.3 °C 1020.2 hPa West 7.7 km/h 14.8 km/h 77 % 0 mm
09:10 2.3 °C -1.3 °C 1020.2 hPa WSW 5.5 km/h 14.8 km/h 77 % 0 mm
09:12 2.4 °C -1.2 °C 1020.5 hPa SW 6.6 km/h 18.5 km/h 77 % 0 mm
09:15 2.5 °C -1.3 °C 1020.5 hPa West 7.9 km/h 18.5 km/h 76 % 0 mm
09:17 2.6 °C -1.3 °C 1020.5 hPa West 11.6 km/h 18.5 km/h 76 % 0 mm
09:18 2.6 °C -1.2 °C 1020.5 hPa SSW 4.5 km/h 11.3 km/h 76 % 0 mm
09:20 2.7 °C -1.3 °C 1020.5 hPa West 9.2 km/h 16.7 km/h 75 % 0 mm
09:21 2.7 °C -1.3 °C 1012.4 hPa West 8 km/h 16.1 km/h 75 % 0 mm
09:25 2.9 °C -1.3 °C 1020.5 hPa WSW 12.1 km/h 18.5 km/h 74 % 0 mm
09:26 2.9 °C -1.3 °C 1020.5 hPa WSW 11.3 km/h 19.3 km/h 74 % 0 mm
09:28 3 °C -1.2 °C 1020.5 hPa SW 8.7 km/h 18.5 km/h 74 % 0 mm
09:29 3.1 °C -1.1 °C 1012.4 hPa WSW 14.2 km/h 19.3 km/h 74 % 0 mm
09:30 3.1 °C -1.3 °C 1020.5 hPa West 14.6 km/h 24.1 km/h 73 % 0 mm
09:31 3.1 °C -1.3 °C 1020.5 hPa SW 6.3 km/h 24.1 km/h 73 % 0 mm
09:32 3.2 °C -1.2 °C 1020.5 hPa WSW 12.2 km/h 22.2 km/h 73 % 0 mm
09:33 3.2 °C -1.2 °C 1020.5 hPa WSW 9.5 km/h 22.2 km/h 73 % 0 mm
09:34 3.2 °C -1.2 °C 1020.5 hPa SW 8.7 km/h 18.5 km/h 73 % 0 mm
09:38 3.3 °C -1.1 °C 1020.5 hPa SW 7.9 km/h 14.5 km/h 73 % 0 mm
09:39 3.3 °C -1.2 °C 1012.4 hPa SW 9.8 km/h 19.3 km/h 72 % 0 mm
09:40 3.3 °C -1.2 °C 1020.5 hPa WSW 11.4 km/h 18.5 km/h 72 % 0 mm
09:41 3.4 °C -1.2 °C 1020.5 hPa WSW 11.3 km/h 18.5 km/h 72 % 0 mm
09:42 3.4 °C -1.1 °C 1020.5 hPa West 13.2 km/h 19.3 km/h 72 % 0 mm
09:43 3.4 °C -1.1 °C 1020.5 hPa WSW 11.3 km/h 18.5 km/h 72 % 0 mm
09:45 3.5 °C -1.1 °C 1020.5 hPa WSW 9.8 km/h 18.5 km/h 72 % 0 mm
09:48 3.6 °C -1.2 °C 1020.5 hPa West 12.4 km/h 18.5 km/h 71 % 0 mm
09:50 3.6 °C -1.2 °C 1020.9 hPa WSW 11.6 km/h 24.1 km/h 71 % 0 mm
09:51 3.7 °C -1.1 °C 1020.5 hPa SSW 11.1 km/h 24.1 km/h 71 % 0 mm
09:52 3.7 °C -1.1 °C 1020.5 hPa West 6.4 km/h 18.5 km/h 71 % 0 mm
09:53 3.7 °C -1.1 °C 1020.5 hPa WSW 10.3 km/h 13 km/h 71 % 0 mm
09:56 3.8 °C -1.2 °C 1020.9 hPa West 12.7 km/h 30.6 km/h 70 % 0 mm
10:02 4 °C -1.2 °C 1020.5 hPa WSW 15 km/h 30.6 km/h 69 % 0 mm
10:03 4.1 °C -1.3 °C 1020.5 hPa WSW 14.8 km/h 31.5 km/h 68 % 0 mm
10:04 4.1 °C -1.3 °C 1012.4 hPa West 13 km/h 20.9 km/h 68 % 0 mm
10:05 4.1 °C -1.3 °C 1020.5 hPa West 12.7 km/h 20.9 km/h 68 % 0 mm
10:06 4.1 °C -1.3 °C 1020.5 hPa West 16.7 km/h 22.5 km/h 68 % 0 mm
10:07 4.2 °C -1.2 °C 1020.5 hPa SSW 14.8 km/h 22.2 km/h 68 % 0 mm
10:09 4.2 °C -1.4 °C 1020.5 hPa West 13.8 km/h 25.7 km/h 67 % 0 mm
10:10 4.2 °C -1.4 °C 1020.5 hPa West 8 km/h 25.9 km/h 67 % 0 mm
10:11 4.2 °C -1.4 °C 1020.5 hPa WNW 13 km/h 24.1 km/h 67 % 0 mm
10:12 4.3 °C -1.3 °C 1020.5 hPa WNW 10.6 km/h 18.5 km/h 67 % 0 mm
10:13 4.3 °C -1.3 °C 1020.5 hPa WNW 14.3 km/h 18.5 km/h 67 % 0 mm
10:14 4.3 °C -1.3 °C 1020.5 hPa SW 5.3 km/h 18.5 km/h 67 % 0 mm
10:15 4.3 °C -1.3 °C 1020.5 hPa SSW 14 km/h 24.1 km/h 67 % 0 mm
10:16 4.3 °C -1.3 °C 1020.5 hPa West 14.2 km/h 16.1 km/h 67 % 0 mm
10:18 4.4 °C -1.2 °C 1020.5 hPa WSW 8 km/h 14.5 km/h 67 % 0 mm
10:19 4.4 °C -1.2 °C 1012.4 hPa WNW 9.3 km/h 18.5 km/h 67 % 0 mm
10:20 4.4 °C -1.2 °C 1020.5 hPa WNW 6.9 km/h 16.7 km/h 67 % 0 mm
10:21 4.5 °C -1.1 °C 1020.5 hPa WNW 5.8 km/h 16.7 km/h 67 % 0 mm
10:22 4.5 °C -1.1 °C 1020.5 hPa WSW 5.6 km/h 14.8 km/h 67 % 0 mm
10:23 4.6 °C -1.1 °C 1020.5 hPa West 10.9 km/h 24.1 km/h 67 % 0 mm
10:24 4.6 °C -1.3 °C 1020.5 hPa NW 12.6 km/h 24.1 km/h 66 % 0 mm
10:27 4.7 °C -1.2 °C 1020.5 hPa West 9.5 km/h 22.2 km/h 66 % 0 mm
10:28 4.7 °C -1.2 °C 1020.5 hPa WNW 3.7 km/h 16.7 km/h 66 % 0 mm
10:30 4.7 °C -1.2 °C 1020.5 hPa WNW 10.5 km/h 24.1 km/h 66 % 0 mm
10:31 4.7 °C -1.2 °C 1020.5 hPa West 8 km/h 24.1 km/h 66 % 0 mm
10:33 4.7 °C -0.9 °C 1020.5 hPa West 7.9 km/h 14.8 km/h 67 % 0 mm
10:34 4.7 °C -0.9 °C 1020.5 hPa WSW 7.4 km/h 14.8 km/h 67 % 0 mm
10:35 4.7 °C -0.9 °C 1012.4 hPa WNW 8.4 km/h 16.1 km/h 67 % 0 mm
10:36 4.8 °C -0.8 °C 1020.5 hPa WNW 8 km/h 18.5 km/h 67 % 0 mm
10:37 4.8 °C -0.8 °C 1020.5 hPa WSW 8.7 km/h 18.5 km/h 67 % 0 mm
10:38 4.8 °C -0.8 °C 1020.5 hPa WSW 6.9 km/h 16.7 km/h 67 % 0 mm
10:44 4.7 °C -0.9 °C 1020.5 hPa West 12.1 km/h 19.3 km/h 67 % 0 mm
10:45 4.7 °C -0.9 °C 1020.5 hPa WSW 11.6 km/h 22.5 km/h 67 % 0 mm
10:48 4.7 °C -0.9 °C 1020.5 hPa WSW 10.6 km/h 20.4 km/h 67 % 0 mm
10:50 4.7 °C -0.9 °C 1020.5 hPa West 7.7 km/h 22.2 km/h 67 % 0 mm
10:51 4.7 °C -0.9 °C 1020.5 hPa West 11.1 km/h 16.7 km/h 67 % 0 mm
10:54 4.7 °C -0.9 °C 1020.5 hPa NW 11.6 km/h 16.1 km/h 67 % 0 mm
10:55 4.7 °C -0.9 °C 1020.5 hPa West 12.4 km/h 12.9 km/h 67 % 0 mm
10:56 4.7 °C -0.9 °C 1020.5 hPa WSW 7.7 km/h 18.5 km/h 67 % 0 mm
10:57 4.7 °C -0.9 °C 1012.4 hPa WSW 11.6 km/h 24.1 km/h 67 % 0 mm
10:58 4.7 °C -0.9 °C 1020.5 hPa WSW 7.1 km/h 18.5 km/h 67 % 0 mm
11:00 4.7 °C -0.9 °C 1020.5 hPa WNW 6.1 km/h 11.1 km/h 67 % 0 mm
11:01 4.7 °C -0.9 °C 1020.5 hPa NW 6.1 km/h 9.7 km/h 67 % 0 mm
11:02 4.7 °C -0.9 °C 1020.5 hPa NW 5.3 km/h 16.1 km/h 67 % 0 mm
11:03 4.8 °C -0.8 °C 1020.5 hPa NW 6 km/h 16.7 km/h 67 % 0 mm
11:04 4.7 °C -0.9 °C 1020.5 hPa WNW 5.1 km/h 13 km/h 67 % 0 mm
11:05 4.8 °C -0.8 °C 1020.5 hPa West 2.3 km/h 13 km/h 67 % 0 mm
11:06 4.8 °C -0.8 °C 1020.5 hPa WSW 6.8 km/h 16.7 km/h 67 % 0 mm
11:09 4.8 °C -0.8 °C 1012.4 hPa WSW 7.7 km/h 16.7 km/h 67 % 0 mm
11:10 4.8 °C -1.1 °C 1020.5 hPa West 13 km/h 24.1 km/h 66 % 0 mm
11:11 4.8 °C -1.1 °C 1020.5 hPa WSW 12.7 km/h 18.5 km/h 66 % 0 mm
11:13 4.8 °C -1.1 °C 1012.1 hPa SW 9 km/h 14.8 km/h 66 % 0 mm
11:14 4.8 °C -1.1 °C 1020.5 hPa West 9.5 km/h 16.7 km/h 66 % 0 mm
11:15 4.8 °C -1.1 °C 1020.2 hPa WSW 6.4 km/h 16.7 km/h 66 % 0 mm
11:17 4.8 °C -1.1 °C 1020.5 hPa West 5.8 km/h 13 km/h 66 % 0 mm
11:20 4.8 °C -1.1 °C 1020.5 hPa West 4.3 km/h 24.1 km/h 66 % 0 mm
11:21 4.8 °C -1.1 °C 1020.5 hPa NW 5.6 km/h 24.1 km/h 66 % 0 mm
11:22 4.8 °C -1.1 °C 1020.2 hPa WNW 10.6 km/h 11.1 km/h 66 % 0 mm
11:24 4.7 °C -1.3 °C 1020.2 hPa SW 8.9 km/h 18.5 km/h 65 % 0 mm
11:25 4.8 °C -1.3 °C 1012.1 hPa WSW 6 km/h 14.5 km/h 65 % 0 mm
11:26 4.8 °C -1.3 °C 1020.2 hPa WSW 6 km/h 14.5 km/h 65 % 0 mm
11:29 4.7 °C -1.3 °C 1012.1 hPa West 10 km/h 19.3 km/h 65 % 0 mm
11:30 4.7 °C -1.3 °C 1020.5 hPa WNW 6.3 km/h 18.5 km/h 65 % 0 mm
11:31 4.7 °C -1.3 °C 1012.1 hPa West 8 km/h 19.3 km/h 65 % 0 mm
11:32 4.7 °C -1.3 °C 1020.5 hPa West 7.1 km/h 13 km/h 65 % 0 mm
11:34 4.7 °C -1.3 °C 1020.2 hPa SW 8.2 km/h 16.1 km/h 65 % 0 mm
11:36 4.7 °C -1.3 °C 1020.5 hPa West 8 km/h 16.1 km/h 65 % 0 mm
11:38 4.8 °C -1.3 °C 1020.5 hPa WSW 5.5 km/h 9.3 km/h 65 % 0 mm
11:39 4.8 °C -1.3 °C 1020.5 hPa WSW 4.2 km/h 9.3 km/h 65 % 0 mm
11:40 4.8 °C -1.3 °C 1020.2 hPa SW 7.2 km/h 8 km/h 65 % 0 mm
11:42 4.8 °C -1.3 °C 1020.2 hPa WSW 15.1 km/h 22.2 km/h 65 % 0 mm
11:43 4.8 °C -1.4 °C 1020.5 hPa West 5.6 km/h 20.4 km/h 64 % 0 mm
11:44 4.8 °C -1.4 °C 1020.5 hPa West 6.3 km/h 20.4 km/h 64 % 0 mm
11:47 4.8 °C -1.4 °C 1020.2 hPa West 15.8 km/h 22.5 km/h 64 % 0 mm
11:48 4.8 °C -1.4 °C 1020.2 hPa WSW 9.8 km/h 22.2 km/h 64 % 0 mm
11:50 4.8 °C -1.7 °C 1020.2 hPa WNW 9.3 km/h 22.5 km/h 63 % 0 mm
11:51 4.8 °C -1.4 °C 1020.2 hPa West 8.4 km/h 22.2 km/h 64 % 0 mm
11:53 4.8 °C -1.4 °C 1020.2 hPa WNW 7.6 km/h 13 km/h 64 % 0 mm
11:57 4.8 °C -1.6 °C 1020.2 hPa WNW 8.4 km/h 11.1 km/h 63 % 0 mm
11:58 4.8 °C -1.6 °C 1020.2 hPa WSW 9.8 km/h 11.1 km/h 63 % 0 mm
12:00 4.8 °C -1.6 °C 1020.2 hPa West 7.4 km/h 18.5 km/h 63 % 0 mm
12:02 4.8 °C -1.8 °C 1020.2 hPa West 6.6 km/h 16.7 km/h 62 % 0 mm
12:04 4.9 °C -1.8 °C 1020.2 hPa WNW 6.6 km/h 14.8 km/h 62 % 0 mm
12:06 4.9 °C -1.8 °C 1012.1 hPa West 8 km/h 19.3 km/h 62 % 0 mm
12:08 4.9 °C -1.8 °C 1020.2 hPa WNW 3.2 km/h 11.1 km/h 62 % 0 mm
12:09 4.9 °C -1.5 °C 1020.2 hPa West 6.8 km/h 12.9 km/h 63 % 0 mm
12:12 5 °C -1.7 °C 1020.2 hPa WNW 8.4 km/h 16.7 km/h 62 % 0 mm
12:14 5.1 °C -1.8 °C 1020.2 hPa West 4.7 km/h 13 km/h 61 % 0 mm
12:15 5.1 °C -1.8 °C 1020.2 hPa WSW 5.6 km/h 8 km/h 61 % 0 mm
12:16 5.1 °C -1.8 °C 1020.2 hPa WSW 8.5 km/h 14.8 km/h 61 % 0 mm
12:17 5.2 °C -1.7 °C 1020.2 hPa WSW 5.8 km/h 14.8 km/h 61 % 0 mm
12:19 5.2 °C -1.7 °C 1020.2 hPa WSW 8.9 km/h 14.8 km/h 61 % 0 mm
12:20 5.3 °C -1.9 °C 1012.1 hPa West 8.9 km/h 16.7 km/h 60 % 0 mm
12:22 5.3 °C -1.8 °C 1020.2 hPa WSW 8.5 km/h 14.5 km/h 60 % 0 mm
12:23 5.4 °C -1.8 °C 1020.2 hPa West 2.7 km/h 14.8 km/h 60 % 0 mm
12:25 5.5 °C -1.7 °C 1020.2 hPa West 7.7 km/h 14.5 km/h 60 % 0 mm
12:27 5.6 °C -1.6 °C 1020.2 hPa West 8.2 km/h 18.5 km/h 60 % 0 mm
12:29 5.6 °C -1.8 °C 1020.2 hPa West 12.7 km/h 18.5 km/h 59 % 0 mm
12:53 5.8 °C -2.5 °C 1020.2 hPa NW 8 km/h 22.5 km/h 55 % 0 mm
13:00 5.8 °C -2.3 °C 1020.2 hPa WNW 7.9 km/h 18.5 km/h 56 % 0 mm
13:01 5.9 °C -2 °C 1020.2 hPa NW 8 km/h 20.9 km/h 57 % 0 mm
13:04 5.9 °C -1.8 °C 1012.1 hPa NNW 6.4 km/h 18.5 km/h 58 % 0 mm
13:10 5.8 °C -2.3 °C 1020.5 hPa WNW 3.7 km/h 20.9 km/h 56 % 0 mm
13:18 5.8 °C -2.1 °C 1020.5 hPa NNW 8.4 km/h 19.3 km/h 57 % 0 mm
13:19 5.8 °C -2.1 °C 1020.5 hPa WNW 4.2 km/h 14.8 km/h 57 % 0 mm
13:20 5.8 °C -2.1 °C 1020.5 hPa WNW 2.4 km/h 14.8 km/h 57 % 0 mm
13:22 5.8 °C -1.8 °C 1020.5 hPa WNW 11.1 km/h 18.5 km/h 58 % 0 mm
13:24 5.8 °C -2.1 °C 1020.5 hPa NW 5.5 km/h 18.5 km/h 57 % 0 mm
13:26 5.8 °C -1.8 °C 1020.5 hPa NW 13 km/h 19.3 km/h 58 % 0 mm
13:31 5.9 °C -1.8 °C 1020.2 hPa WNW 2.3 km/h 14.8 km/h 58 % 0 mm
13:33 5.9 °C -1.7 °C 1020.2 hPa NW 6.4 km/h 14.5 km/h 58 % 0 mm
13:36 5.9 °C -1.9 °C 1020.2 hPa WNW 11.3 km/h 19.3 km/h 57 % 0 mm
13:39 6.1 °C -1.8 °C 1020.5 hPa WNW 8.5 km/h 20.9 km/h 57 % 0 mm
13:40 6.1 °C -1.8 °C 1012.1 hPa WNW 11.3 km/h 11.3 km/h 57 % 0 mm
13:41 6.1 °C -1.8 °C 1020.5 hPa NW 9.2 km/h 20.4 km/h 57 % 0 mm
13:47 6.2 °C -1.7 °C 1020.5 hPa West 8.7 km/h 16.1 km/h 57 % 0 mm
13:50 6.2 °C -1.9 °C 1020.5 hPa WNW 12.9 km/h 22.2 km/h 56 % 0 mm
13:51 6.2 °C -1.9 °C 1020.5 hPa WNW 13.7 km/h 20.4 km/h 56 % 0 mm
13:55 6.2 °C -1.9 °C 1020.5 hPa West 10.8 km/h 18.5 km/h 56 % 0 mm
13:58 6.2 °C -2.2 °C 1020.5 hPa NE 6 km/h 20.4 km/h 55 % 0 mm
14:03 6.2 °C -2.2 °C 1020.9 hPa WNW 8.7 km/h 16.7 km/h 55 % 0 mm
14:04 6.2 °C -2.2 °C 1020.9 hPa WNW 8.9 km/h 18.5 km/h 55 % 0 mm
14:09 6.2 °C -1.7 °C 1020.9 hPa NNW 8.2 km/h 11.1 km/h 57 % 0 mm
14:11 6.1 °C -1.8 °C 1020.9 hPa North 9.3 km/h 16.7 km/h 57 % 0 mm
14:16 6 °C -2.4 °C 1020.9 hPa NNW 4.3 km/h 16.7 km/h 55 % 0 mm
14:21 5.9 °C -2.2 °C 1020.9 hPa NW 10.1 km/h 20.4 km/h 56 % 0 mm
14:26 5.8 °C -2.3 °C 1020.9 hPa WNW 7.4 km/h 14.8 km/h 56 % 0 mm
14:27 5.7 °C -2.4 °C 1020.9 hPa West 6 km/h 17.7 km/h 56 % 0 mm
14:28 5.7 °C -2.4 °C 1020.9 hPa WNW 8.2 km/h 18.5 km/h 56 % 0 mm
14:33 5.6 °C -2.3 °C 1020.9 hPa NW 7.9 km/h 11.1 km/h 57 % 0 mm
14:38 5.4 °C -2.2 °C 1020.9 hPa NW 5 km/h 14.8 km/h 58 % 0 mm
14:43 5.3 °C -2.3 °C 1020.9 hPa NNW 10.5 km/h 18.5 km/h 58 % 0 mm
14:48 5.2 °C -2.4 °C 1021.2 hPa NNW 7.9 km/h 13 km/h 58 % 0 mm
14:54 5.1 °C -2.3 °C 1021.2 hPa WNW 9.3 km/h 18.5 km/h 59 % 0 mm
14:59 5 °C -2.3 °C 1021.2 hPa WNW 9.5 km/h 14.8 km/h 59 % 0 mm
15:04 4.9 °C -2.4 °C 1021.6 hPa NW 4.8 km/h 13 km/h 59 % 0 mm
15:11 4.8 °C -2.3 °C 1021.6 hPa WNW 5.3 km/h 14.8 km/h 60 % 0 mm
15:17 4.7 °C -2.4 °C 1021.6 hPa West 8 km/h 16.7 km/h 60 % 0 mm
15:28 4.6 °C -2.7 °C 1021.6 hPa WNW 4.3 km/h 14.8 km/h 59 % 0 mm
15:36 4.6 °C -2.9 °C 1021.9 hPa NW 5.8 km/h 16.7 km/h 58 % 0 mm
15:37 4.6 °C -2.9 °C 1013.8 hPa WNW 5 km/h 9.7 km/h 58 % 0 mm
15:44 4.6 °C -2.9 °C 1014.1 hPa West 6.8 km/h 18.5 km/h 58 % 0 mm
15:46 4.6 °C -2.9 °C 1022.2 hPa WNW 6 km/h 14.8 km/h 58 % 0 mm
15:49 4.6 °C -2.9 °C 1014.1 hPa West 7.1 km/h 16.1 km/h 58 % 0 mm
15:51 4.6 °C -2.9 °C 1022.2 hPa NW 7.2 km/h 16.7 km/h 58 % 0 mm
15:57 4.6 °C -3 °C 1022.6 hPa West 7.7 km/h 14.8 km/h 58 % 0 mm
16:01 4.6 °C -3 °C 1022.6 hPa NW 10.3 km/h 16.7 km/h 58 % 0 mm
16:07 4.4 °C -2.9 °C 1022.6 hPa WNW 6.8 km/h 16.7 km/h 59 % 0 mm
16:15 4.4 °C -3.2 °C 1022.9 hPa NW 10 km/h 16.7 km/h 58 % 0 mm
16:17 4.3 °C -3.2 °C 1022.9 hPa West 7.7 km/h 13 km/h 58 % 0 mm
16:23 4.3 °C -3.1 °C 1022.9 hPa WNW 12.6 km/h 20.9 km/h 59 % 0 mm
16:28 4.2 °C -3.1 °C 1022.9 hPa NNW 9.2 km/h 14.8 km/h 59 % 0 mm
16:34 4.2 °C -3.1 °C 1014.8 hPa WNW 9 km/h 19.3 km/h 59 % 0 mm
16:41 4.2 °C -3.2 °C 1023.2 hPa WNW 5 km/h 16.7 km/h 59 % 0 mm
16:46 4.1 °C -3.2 °C 1023.2 hPa WNW 6.4 km/h 16.1 km/h 59 % 0 mm
16:53 4.1 °C -3.2 °C 1023.6 hPa West 1.6 km/h 11.1 km/h 59 % 0 mm
16:58 4 °C -3.1 °C 1023.6 hPa WNW 2.9 km/h 8 km/h 60 % 0 mm
17:04 3.9 °C -2.9 °C 1023.6 hPa WSW 1.8 km/h 6.4 km/h 61 % 0 mm
17:09 3.9 °C -2.9 °C 1023.6 hPa WSW 3.7 km/h 13 km/h 61 % 0 mm
17:10 3.8 °C -3 °C 1023.6 hPa WSW 4.7 km/h 9.3 km/h 61 % 0 mm
17:16 3.8 °C -2.8 °C 1023.6 hPa West 4.8 km/h 11.3 km/h 62 % 0 mm
17:21 3.7 °C -2.9 °C 1023.9 hPa West 8 km/h 16.1 km/h 62 % 0 mm
17:23 3.7 °C -2.9 °C 1023.6 hPa WNW 7.2 km/h 16.7 km/h 62 % 0 mm
17:28 3.7 °C -3.2 °C 1023.9 hPa NW 8.2 km/h 18.5 km/h 61 % 0 mm
17:31 3.7 °C -3.2 °C 1015.8 hPa WNW 8 km/h 19.3 km/h 61 % 0 mm
17:33 3.7 °C -3.2 °C 1015.8 hPa WNW 8.5 km/h 20.4 km/h 61 % 0 mm
17:41 3.7 °C -2.9 °C 1024.3 hPa NW 14.5 km/h 19.3 km/h 62 % 0 mm
17:43 3.7 °C -2.9 °C 1015.8 hPa NNW 11.9 km/h 18.5 km/h 62 % 0 mm
17:48 3.7 °C -2.9 °C 1024.3 hPa NW 5.6 km/h 18.5 km/h 62 % 0 mm
17:53 3.7 °C -2.7 °C 1016.1 hPa WNW 9.5 km/h 19.3 km/h 63 % 0 mm
18:07 3.6 °C -2.2 °C 1024.9 hPa NW 6.3 km/h 20.9 km/h 66 % 0 mm
18:21 3.3 °C -1.7 °C 1024.9 hPa WNW 2.1 km/h 16.7 km/h 70 % 0 mm
18:28 3.1 °C -1.7 °C 1016.8 hPa North 1.4 km/h 8 km/h 71 % 0 mm
18:34 2.9 °C -2 °C 1025.3 hPa NNW 6.3 km/h 12.9 km/h 70 % 0 mm
18:40 2.9 °C -2.4 °C 1025.3 hPa NW 6.6 km/h 18.5 km/h 68 % 0 mm
18:46 2.9 °C -2.6 °C 1025.3 hPa NW 8.7 km/h 18.5 km/h 67 % 0 mm
18:50 2.9 °C -2.4 °C 1025.6 hPa NNW 9.5 km/h 18.5 km/h 68 % 0 mm
Crab Meadow Weather
Compliments of Weather Underground - 4.75 mb

Script developed by  Jim McMurry - jmcmurry@mwt.net Adapted for the template by  Wim van der Kuil - Leuven-Template.eu

Weather Terms: Winter Storms - These are weather hazards associated with freezing or frozen precipitation (freezing rain, sleet, snow) or combined effects of winter precipitation and strong winds.